Location: Chuathbaluk
(61.5726°N, 159.2454°W)
Time: 17:24:02
(UTC+00:00)

ZACube-1 - Pass Details

Date: 25 January 2021
Orbit: 583 x 666 km, 97.6° (Epoch: 04 March)

Event Time Altitude Azimuth Distance (km) Brightness Sun altitude
Rises 14:47:35 0° 20° (NNE) 3,025 ? -30.8°
Reaches altitude 10° 14:50:15 10° 35° (NE) 2,103 ? -30.5°
Maximum altitude 14:53:56 23° 88° (E) 1,399 ? -30.1°
Drops below altitude 10° 14:57:34 10° 141° (SE) 2,069 ? -29.7°
Sets 15:00:09 0° 156° (SSE) 2,963 ? -29.4°
